Temp
12 12 11 12 12 12 12 12 12 12 12 12 12 11 11 12 11 13 11 12 12 12 12 12 12 12 12 12 12 12 12 12 12 12 12 12 12 12 12 12 12 12 12
12 12 11 11 10 11 10 11 11 11 11 11 11 10 11 11 11 11 11 11 11 11 11 12 12 11 11 12 12 11 11 12 12 12 12 12 12 12 12 12 12 12 12
13 12 12 10 10 10 9 10 10 9 10 10 10 10 10 10 11 11 10 11 11 11 10 11 11 11 10 11 11 11 11 11 11 11 11 11 11 11 11 11 12 12 12
11 11 11 11 10 10 9 9 10 9 9 9 9 10 10 10 10 10 10 10 10 10 10 10 10 10 10 10 10 11 10 10 11 11 11 11 11 11 11 11 11 12 12
11 10 10 10 9 10 10 10 9 9 9 9 9 9 9 9 10 9 10 10 10 10 10 10 9 9 10 10 10 10 11 10 10 10 10 11 11 11 11 11 11 11 11
10 10 10 10 10 10 10 10 10 10 9 9 9 9 8 8 8 8 9 9 9 9 8 9 9 9 9 9 10 10 10 10 9 9 10 10 10 10 10 10 10 10 10
10 10 10 9 9 9 9 9 9 9 9 9 9 8 8 7 7 7 7 7 7 8 7 8 8 8 8 8 8 9 9 9 8 8 8 8 8 9 9 9 9 9 9
9 10 10 9 9 9 9 9 9 9 9 8 8 8 7 6 6 6 6 6 6 6 6 6 7 7 7 7 7 7 8 8 8 8 8 8 8 8 8 8 8 8 8
9 9 9 9 9 8 8 8 8 8 8 8 8 7 7 7 6 5 5 6 6 6 6 6 6 6 7 6 7 7 7 7 7 7 7 7 8 8 8 8 8 7 7
9 9 9 9 8 8 8 8 8 7 7 7 7 7 7 7 6 5 5 5 6 6 6 6 6 6 6 6 6 6 6 6 6 6 7 7 7 6 6 7 7 7 6
9 9 9 8 8 8 8 7 7 7 7 7 7 7 7 7 7 7 6 5 5 5 5 5 6 5 5 4 4 4 4 4 5 5 5 5 5 6 6 6 6 5 5
8 8 8 8 8 7 7 7 7 7 7 7 7 7 6 7 7 7 6 6 5 5 5 5 5 4 4 4 4 4 3 3 4 4 4 4 4 5 5 5 4 4 5
8 7 7 7 7 7 6 6 6 6 6 6 6 6 6 6 6 6 6 6 5 4 3 3 3 4 3 3 3 3 3 3 3 3 3 3 4 4 3 3 3 3 3
6 6 6 6 6 6 6 6 5 5 6 6 5 5 5 5 6 6 6 6 5 4 3 3 3 2 3 3 3 3 3 3 3 3 3 3 3 3 3 3 2 2 2
6 5 6 6 5 5 5 5 5 5 4 5 4 5 5 5 4 4 5 4 4 3 2 2 2 2 3 3 3 3 3 3 3 3 3 3 3 3 3 2 2 2 2
5 5 5 5 4 4 4 4 4 4 5 3 3 3 3 3 3 3 3 3 3 3 2 2 2 2 2 2 2 2 2 2 2 2 2 2 1 1 1 1 1 1 1
4 4 4 4 4 3 3 3 3 2 4 3 3 3 2 2 2 2 1 1 2 1 1 1 1 1 1 1 2 1 1 1 1 1 1 1 1 1 1 1 1 1 1
4 3 3 3 3 2 2 1 3 2 2 2 2 3 2 2 1 1 1 1 1 1 1 1 1 1 1 1 1 1 0 1 1 0 0 1 0 0 0 0 0 1 1
3 3 2 2 2 1 0 0 0 0 0 0 1 1 1 1 1 1 1 1 1 1 1 1 1 0 0 0 0 0 0 0 0 0 -0 0 -0 -0 -0 -0 -0 -0 -0
3 2 1 1 0 0 0 0 -0 -0 -0 -0 0 1 0 -0 0 1 1 0 0 1 1 1 0 0 0 0 -0 -0 -0 -0 -0 -0 -0 -0 -1 -1 -1 -1 -1 -1 -1
2 1 1 0 -0 -0 -0 -1 -1 -1 -1 -1 -0 -0 -0 -1 -1 0 0 0 0 1 0 0 -0 -0 0 -0 -0 -1 -0 -0 -0 -1 -1 -1 -1 -1 -2 -2 -2 -3 -3
1 1 0 -0 -1 -1 -1 -1 -1 -1 -1 -1 -1 -1 -1 -1 -1 -0 -0 -0 -0 0 0 -0 -0 -0 -1 -0 -0 -1 -1 -1 -1 -1 -2 -1 -2 -2 -2 -3 -4 -4 -3
1 0 -1 -1 -1 -1 -1 -1 -1 -1 -1 -1 -1 -1 -1 -1 -2 -1 -1 -1 -0 -0 -0 -1 -1 -1 -1 -1 -1 -1 -1 -1 -1 -1 -1 -2 -2 -2 -3 -3 -3 -4 -4
0 -0 -1 -1 -1 -1 -2 -2 -2 -2 -2 -2 -2 -2 -2 -2 -2 -2 -2 -1 -1 -1 -1 -2 -2 -1 -1 -1 -1 -1 -1 -1 -1 -1 -2 -2 -2 -3 -3 -4 -4 -4 -5
-0 -0 -1 -1 -1 -1 -2 -2 -2 -2 -2 -2 -3 -2 -2 -2 -2 -2 -2 -2 -1 -1 -1 -2 -1 -1 -1 -1 -1 -1 -1 -1 -2 -2 -2 -3 -3 -3 -3 -4 -4 -5 -5
0 -0 -1 -1 -1 -2 -2 -2 -2 -2 -2 -3 -4 -3 -2 -2 -2 -2 -2 -2 -2 -2 -2 -2 -2 -2 -1 -2 -2 -2 -2 -2 -2 -2 -3 -3 -3 -4 -4 -4 -5 -5 -6
Height
1540 1540 1540 1539 1539 1539 1539 1540 1540 1541 1541 1539 1539 1539 1540 1542 1543 1537 1540 1541 1542 1543 1542 1541 1540 1540 1540 1540 1540 1540 1540 1541 1542 1543 1543 1545 1545 1546 1546 1547 1547 1548 1548
1538 1537 1537 1537 1537 1537 1536 1537 1537 1537 1537 1537 1537 1538 1537 1537 1537 1539 1539 1539 1539 1540 1540 1538 1538 1538 1538 1538 1538 1538 1539 1540 1540 1541 1542 1543 1543 1544 1544 1545 1545 1545 1545
1536 1536 1535 1535 1535 1534 1534 1534 1535 1535 1535 1535 1534 1535 1536 1534 1534 1534 1536 1536 1536 1537 1537 1537 1536 1536 1536 1537 1536 1536 1537 1537 1538 1537 1539 1540 1541 1542 1542 1542 1542 1542 1543
1535 1534 1533 1533 1532 1532 1532 1532 1532 1532 1533 1533 1533 1532 1532 1531 1531 1530 1532 1532 1533 1533 1533 1533 1533 1534 1535 1535 1535 1535 1535 1536 1536 1536 1537 1538 1538 1539 1539 1539 1539 1540 1540
1533 1533 1531 1530 1530 1530 1529 1529 1529 1529 1529 1530 1532 1532 1530 1529 1529 1529 1527 1529 1529 1530 1530 1530 1531 1532 1533 1533 1533 1533 1533 1533 1534 1535 1535 1535 1535 1536 1536 1536 1536 1536 1537
1531 1530 1529 1529 1528 1527 1526 1525 1525 1526 1527 1527 1525 1526 1528 1527 1526 1526 1525 1525 1526 1526 1526 1528 1528 1529 1530 1531 1531 1531 1532 1531 1532 1532 1533 1532 1532 1533 1532 1533 1533 1533 1533
1529 1529 1529 1529 1527 1527 1526 1524 1523 1522 1522 1523 1525 1524 1523 1525 1525 1524 1524 1524 1524 1524 1525 1524 1525 1526 1527 1529 1529 1529 1529 1529 1531 1530 1531 1531 1531 1531 1531 1530 1531 1531 1531
1526 1525 1525 1525 1524 1523 1523 1522 1521 1520 1519 1520 1521 1521 1521 1524 1523 1523 1524 1523 1523 1523 1525 1524 1523 1523 1525 1527 1527 1528 1528 1528 1528 1529 1530 1530 1529 1529 1529 1529 1529 1529 1529
1523 1522 1522 1522 1522 1522 1521 1520 1519 1518 1517 1518 1518 1521 1519 1518 1520 1521 1522 1523 1522 1522 1523 1524 1522 1522 1523 1525 1526 1527 1526 1526 1527 1529 1528 1529 1529 1527 1528 1527 1528 1527 1527
1520 1520 1519 1520 1520 1519 1517 1516 1517 1516 1516 1516 1518 1517 1517 1516 1517 1519 1519 1521 1520 1520 1520 1522 1521 1522 1522 1524 1524 1523 1524 1525 1526 1527 1527 1529 1525 1525 1525 1524 1525 1524 1524
1517 1517 1516 1516 1516 1516 1515 1512 1512 1513 1513 1514 1515 1516 1516 1514 1514 1515 1516 1517 1517 1518 1519 1520 1520 1520 1521 1522 1521 1522 1524 1523 1524 1526 1526 1524 1524 1523 1522 1523 1522 1522 1522
1514 1514 1514 1514 1514 1514 1513 1512 1509 1509 1510 1510 1513 1514 1515 1513 1512 1512 1514 1515 1516 1516 1515 1516 1517 1519 1520 1519 1520 1521 1522 1525 1525 1524 1524 1522 1522 1522 1521 1521 1519 1520 1520
1509 1510 1510 1510 1511 1512 1511 1510 1508 1507 1507 1506 1510 1512 1512 1511 1510 1510 1511 1512 1512 1513 1513 1514 1516 1518 1519 1519 1519 1520 1521 1523 1524 1523 1522 1520 1520 1520 1520 1519 1517 1517 1518
1506 1506 1505 1506 1506 1507 1508 1506 1505 1505 1504 1504 1507 1509 1509 1508 1508 1509 1508 1509 1510 1511 1512 1514 1516 1516 1519 1518 1518 1518 1519 1520 1521 1521 1520 1519 1519 1518 1518 1517 1515 1516 1517
1503 1503 1502 1503 1503 1504 1505 1504 1504 1503 1502 1502 1505 1506 1506 1506 1507 1507 1506 1507 1508 1510 1511 1513 1515 1516 1516 1516 1517 1516 1516 1517 1518 1518 1518 1517 1516 1516 1515 1514 1514 1515 1515
1497 1497 1498 1499 1501 1502 1501 1501 1500 1501 1498 1502 1503 1503 1503 1504 1505 1505 1505 1506 1506 1508 1510 1511 1513 1513 1513 1514 1514 1514 1513 1513 1515 1515 1515 1514 1515 1513 1513 1513 1514 1514 1513
1492 1492 1493 1494 1495 1498 1497 1497 1496 1496 1495 1500 1501 1501 1501 1502 1503 1503 1503 1503 1504 1506 1508 1509 1510 1511 1512 1511 1511 1511 1511 1511 1512 1512 1513 1511 1513 1512 1512 1513 1513 1512 1511
1488 1489 1489 1491 1492 1493 1494 1494 1492 1493 1494 1496 1498 1497 1499 1500 1501 1501 1501 1500 1502 1504 1505 1507 1508 1509 1509 1509 1509 1509 1509 1509 1509 1510 1510 1510 1509 1510 1511 1510 1509 1508 1508
1484 1485 1486 1488 1489 1489 1489 1489 1490 1488 1489 1490 1494 1495 1497 1497 1497 1498 1498 1499 1501 1502 1503 1504 1505 1506 1506 1506 1506 1506 1506 1507 1507 1508 1508 1508 1508 1508 1508 1508 1507 1506 1505
1479 1481 1483 1484 1485 1485 1485 1484 1484 1484 1485 1486 1489 1491 1493 1493 1494 1495 1496 1498 1498 1499 1500 1501 1502 1502 1503 1503 1503 1504 1503 1504 1504 1504 1505 1506 1506 1506 1506 1506 1505 1504 1502
1477 1479 1480 1481 1481 1480 1479 1479 1480 1480 1481 1483 1485 1487 1489 1490 1491 1493 1494 1495 1496 1496 1496 1497 1498 1499 1499 1500 1500 1500 1501 1501 1502 1502 1502 1504 1503 1504 1504 1504 1502 1502 1501
1474 1476 1476 1475 1476 1477 1475 1476 1476 1477 1478 1479 1481 1484 1485 1487 1489 1491 1492 1492 1493 1493 1493 1494 1495 1496 1496 1497 1497 1499 1499 1499 1500 1501 1501 1502 1502 1502 1502 1501 1501 1500 1499
1474 1473 1473 1472 1472 1473 1473 1474 1474 1475 1476 1477 1479 1481 1483 1485 1487 1488 1489 1491 1491 1490 1490 1492 1493 1495 1496 1496 1497 1497 1498 1498 1499 1500 1500 1500 1500 1500 1500 1499 1498 1498 1498
1468 1469 1469 1469 1470 1471 1472 1472 1472 1473 1474 1475 1477 1479 1481 1483 1485 1487 1488 1488 1489 1488 1489 1490 1492 1494 1494 1495 1496 1497 1498 1498 1499 1499 1499 1499 1499 1498 1498 1497 1497 1496 1495
1466 1465 1466 1467 1468 1469 1470 1471 1471 1472 1473 1474 1475 1477 1480 1482 1483 1485 1486 1487 1487 1488 1489 1491 1493 1493 1494 1495 1496 1497 1497 1498 1498 1498 1497 1497 1496 1495 1495 1495 1494 1493 1493
1461 1461 1463 1465 1466 1467 1468 1469 1470 1471 1471 1471 1473 1475 1478 1480 1481 1483 1485 1486 1487 1489 1491 1492 1493 1493 1494 1495 1495 1496 1496 1496 1496 1495 1495 1495 1493 1493 1492 1492 1491 1491 1490
Wind_Speed
12 14 14 15 16 16 16 16 16 15 16 19 16 17 15 13 15 15 15 18 18 16 14 12 12 13 13 11 9 10 11 12 11 10 10 10 10 10 10 11 11 11 11
14 14 14 14 14 14 16 15 14 15 16 16 16 14 12 13 13 17 19 18 17 18 18 16 14 13 13 14 12 10 8 7 7 7 8 8 8 8 9 10 10 11 12
13 13 14 13 14 15 13 11 11 11 12 13 14 14 16 17 22 19 20 20 22 21 18 16 15 12 10 10 11 11 11 10 9 8 9 8 8 9 10 11 12 12 13
13 14 13 14 14 12 12 12 13 14 14 15 17 16 16 14 12 13 17 18 19 18 15 14 14 13 14 15 12 10 10 10 12 13 11 11 13 13 14 15 15 16 16
14 14 14 15 15 15 15 15 15 16 16 16 16 15 14 14 15 14 16 16 16 16 16 14 13 14 15 14 12 13 15 13 10 13 15 16 17 16 16 16 15 15 15
14 15 15 15 15 16 16 16 16 16 16 16 15 14 12 12 12 12 12 12 12 13 14 14 13 12 12 13 13 13 12 12 12 12 12 12 12 13 12 12 13 13 13
14 14 14 15 14 14 15 14 14 14 15 15 14 13 12 10 8 7 6 6 6 7 9 9 10 9 9 10 10 10 11 10 8 9 8 7 7 7 8 8 7 8 8
14 14 14 14 15 14 13 13 14 14 14 12 11 10 7 8 9 7 6 5 4 4 5 5 5 5 6 6 6 7 7 8 9 9 9 8 6 6 5 5 8 10 11
13 13 14 14 14 14 13 12 12 12 12 11 12 9 6 7 13 11 10 8 7 6 5 6 5 5 6 7 7 7 6 6 6 7 7 8 8 8 9 9 9 8 9
14 14 13 14 14 14 13 12 11 11 11 11 11 16 12 6 9 7 14 12 9 8 7 8 6 6 6 7 6 4 4 4 5 3 4 5 1 5 5 4 4 3 7
16 16 15 15 15 15 14 13 11 11 11 11 12 11 14 13 12 8 7 13 12 9 9 10 8 7 4 4 0 2 1 1 1 4 5 5 7 8 8 11 8 7 9
17 17 17 16 16 16 15 14 12 12 11 11 12 12 13 11 11 12 11 8 9 8 8 7 6 6 7 5 2 1 0 2 2 3 4 8 9 9 10 12 14 14 14
18 17 18 17 17 17 16 15 13 12 12 11 11 12 11 10 9 10 9 9 7 6 4 4 6 8 10 8 5 5 4 3 5 6 8 11 11 10 9 11 12 8 9
19 19 19 19 18 18 17 16 14 13 13 11 12 12 11 9 8 8 7 7 5 6 9 8 8 9 8 7 7 8 7 9 8 10 9 11 11 8 9 9 8 9 13
21 21 20 20 19 18 17 16 14 14 12 11 12 12 10 9 8 7 6 6 6 6 8 10 8 9 8 7 9 9 10 10 9 9 10 11 11 9 10 10 9 11 12
21 21 20 20 19 19 18 16 13 13 11 12 12 11 9 9 8 7 6 5 5 5 5 10 10 10 9 11 11 10 6 7 6 7 8 6 5 6 7 8 7 10 9
19 20 20 20 19 19 18 17 15 13 13 14 13 11 9 8 7 7 7 5 5 6 6 7 8 7 8 7 8 5 6 5 6 8 8 8 7 8 6 7 10 10 11
17 18 19 20 21 19 19 16 15 15 15 14 14 13 12 10 9 6 6 5 6 8 10 10 11 11 10 8 7 8 6 7 6 8 5 5 8 7 9 10 11 12 13
16 18 19 21 20 18 19 17 15 18 18 15 15 13 13 13 11 9 7 6 6 8 9 10 10 9 10 7 8 10 9 10 7 9 8 9 9 11 11 11 12 11 12
15 18 20 19 21 21 22 25 24 16 14 14 14 14 14 12 11 11 9 8 7 8 10 11 10 11 10 9 12 12 10 8 8 9 9 9 10 10 11 11 11 11 7
14 17 19 20 22 22 18 17 20 18 15 16 17 13 14 11 10 8 7 7 8 10 11 10 10 10 10 10 9 7 8 6 7 6 7 7 8 9 8 8 6 4 4
16 17 20 19 13 16 17 16 14 13 12 10 10 13 12 11 10 7 7 8 7 7 9 11 13 11 9 8 7 6 7 6 5 7 7 7 7 6 5 4 3 6 8
15 15 16 17 16 17 15 14 13 13 13 11 10 10 10 10 10 7 6 7 7 8 8 8 6 7 6 6 4 3 4 3 2 1 2 4 5 6 7 8 9 10 10
14 16 14 11 10 8 9 8 7 6 5 7 10 11 11 11 11 8 7 7 5 3 3 5 7 7 6 6 5 4 3 2 1 3 5 6 7 8 9 10 11 12 13
18 16 12 12 10 10 8 7 6 7 9 9 10 11 11 12 12 10 7 6 4 5 7 8 8 7 6 5 3 2 1 2 4 5 7 8 7 7 9 11 13 14 13
22 18 13 13 12 12 9 6 7 8 9 9 9 12 13 13 12 9 7 6 7 8 9 8 7 5 4 2 1 2 3 4 5 5 5 7 8 8 5 7 8 9 12
Wind_Direction
261 258 256 256 261 264 269 269 266 262 261 267 265 272 273 273 270 266 260 269 267 265 269 276 263 253 252 252 250 247 245 243 244 244 241 243 246 251 253 258 261 264 269
264 264 264 263 269 266 267 271 266 263 266 267 267 270 262 258 264 269 265 262 262 268 272 273 260 258 255 252 248 242 229 229 228 237 241 248 254 262 266 270 272 272 269
283 283 276 267 270 273 270 267 268 266 266 267 267 268 271 272 265 261 280 268 263 265 267 264 257 250 255 252 246 235 237 226 224 226 234 243 257 267 272 274 278 281 279
287 283 281 278 278 274 268 262 261 262 261 267 270 270 274 277 280 264 257 264 263 263 260 255 252 243 243 250 248 243 246 256 255 255 260 259 268 272 273 274 275 276 277
285 282 278 277 277 274 271 269 264 260 259 258 263 267 263 260 263 268 273 267 261 259 256 250 249 250 247 249 248 246 248 247 248 253 263 271 276 274 271 271 272 272 269
284 278 274 273 274 272 269 267 265 262 259 257 255 256 261 261 263 263 262 263 258 251 247 246 247 251 254 250 250 250 253 256 260 268 273 274 274 274 274 277 279 280 278
284 282 281 279 277 275 274 271 268 265 262 259 255 248 247 252 249 244 243 250 247 246 247 245 245 248 253 251 247 245 241 238 248 256 273 287 282 281 283 285 297 294 279
278 277 275 276 276 275 273 271 270 268 263 256 245 231 215 221 221 219 225 220 226 228 246 251 247 247 250 249 249 245 240 236 236 244 251 253 263 281 294 295 280 276 273
274 271 272 273 275 276 274 272 269 263 259 252 230 217 198 212 204 213 221 227 222 222 240 252 248 254 261 265 259 261 260 252 244 240 238 254 268 272 272 273 277 275 262
273 270 268 270 271 271 270 268 265 258 250 246 238 226 233 221 191 208 220 226 226 232 246 258 265 263 259 266 274 273 270 259 237 222 258 253 203 199 182 161 205 236 266
273 271 269 268 268 268 266 261 257 253 247 243 239 237 233 227 217 219 220 224 227 235 245 253 261 259 241 221 265 31 101 39 284 198 206 237 234 244 248 254 274 308 299
273 272 270 270 269 268 266 262 254 248 244 240 243 241 238 228 227 225 230 221 224 234 253 255 240 224 213 188 192 147 190 294 296 289 270 275 282 288 289 289 297 292 291
273 276 272 270 268 267 265 261 253 246 241 238 244 246 242 239 234 228 232 229 218 202 196 210 195 187 192 192 222 225 271 275 296 297 298 302 299 295 293 313 314 303 294
275 273 270 268 266 265 262 257 251 245 242 240 239 240 241 243 244 242 239 238 213 189 181 165 164 178 203 229 244 270 259 278 281 289 296 294 304 314 318 317 327 308 304
276 277 272 268 266 263 258 254 251 246 243 242 241 240 242 246 245 244 240 236 220 193 188 185 201 221 238 258 261 278 276 275 259 278 280 279 289 288 302 297 293 299 300
274 275 270 266 266 263 256 250 244 248 258 247 238 239 245 253 257 257 250 234 227 213 200 190 209 251 270 266 265 259 271 281 288 291 295 299 273 299 291 296 306 313 317
274 271 265 264 263 260 252 246 244 237 239 239 243 239 243 245 251 255 255 251 245 237 235 233 248 256 277 275 272 251 267 273 286 301 298 293 281 295 288 291 296 303 304
275 267 264 265 259 252 249 239 234 231 231 235 244 248 247 243 245 242 246 253 254 251 248 249 257 265 266 268 267 259 284 269 295 307 285 229 292 271 291 294 302 304 303
272 269 265 261 251 241 249 242 239 239 233 232 243 245 249 253 241 243 237 236 240 254 255 255 258 262 264 268 274 279 289 272 271 277 245 259 271 276 291 298 304 303 296
275 268 260 248 253 250 255 258 246 219 221 227 239 253 259 255 237 239 232 233 246 246 258 260 255 241 257 283 282 267 271 258 255 245 251 248 266 281 287 292 293 287 280
276 260 256 258 267 265 261 253 244 231 220 229 230 246 257 249 240 229 231 243 257 259 257 257 247 252 257 257 260 253 244 243 259 259 257 255 269 277 284 292 289 292 299
268 253 256 273 247 251 241 245 236 225 227 230 236 237 245 236 219 208 230 243 252 257 249 249 251 247 254 256 250 230 239 243 251 260 260 263 268 272 275 285 286 289 307
263 284 273 273 256 255 246 231 239 239 239 233 232 233 234 218 211 206 235 245 253 275 254 244 228 227 229 222 203 199 199 201 198 244 263 265 267 268 277 286 290 295 298
259 274 269 239 243 240 237 250 253 254 244 241 239 227 217 208 212 219 238 242 262 237 207 179 186 183 164 151 147 139 138 137 306 291 293 286 280 278 282 282 282 285 291
258 260 248 234 242 249 241 238 232 257 253 244 227 217 210 208 213 223 239 229 192 172 158 151 152 146 143 147 153 160 217 288 298 292 289 291 292 290 284 277 276 281 288
260 260 246 236 238 241 234 228 244 254 255 244 214 212 208 208 214 218 226 197 178 163 156 156 152 147 151 163 208 269 287 301 309 308 304 310 306 309 300 287 282 283 289